FREGAT DEB, 45814

Orbit data source: Space-Track

FREGAT DEB, 45814 is space debris in LEO originally from a launch on Mon, 18 Jul 2011 UTC launched from the Tyuratam Missile And Space Complex (TTMTR). Debris objects in space refer to the collection of defunct objects orbiting the Earth. Examples of debris include non-operational satellites, rocket bodies, and fragments generated from explosions, collisions, or faulty payload assembly.

Loading next visibility...
Identifier
45814, 2011-037AY
Orbit
LEO
Country
Flag of CISCIS
Related business
Manufacturer
Lavochkin
Mission
Spacecraft
Bus & Motor
Unknown
Mass
Unknown
Launch date (UTC)
2011-07-18 (14 years ago)
Launch vehicle
Unknown
Launch site
Tyuratam Missile And Space Complex (TTMTR)
Object type
Payload
Rocket body
Debris
Shape & HBR
Unknown shape, 0.1 m
Radar Cross Section
Small (<0.1 m²)

Expand to show TLE details & history
Last TLE update: 12 hours ago

TLE from 12 hours ago
0 FREGAT DEB
1 45814U 11037AY  25290.85195691 -.00001804  00000-0 -15944-1 0  9995
2 45814  51.0829 108.0617 0848123 226.9414 125.7305 11.52288217223744
Epoch: 2025-10-17T20:26Z
TLE epoch observation values (Epoch: 2025-10-17T20:26:49.077Z)
Latitude
Longitude
134.76583°
Altitude
2,348.836 km
Speed
6.576 km/s
True Right ascension
07h 12m 14s
True Declination
0° 00' 00"
Sunlit
Object was in daylight at epoch
Visualization orbit readout
Latitude
Unknown
Longitude
Unknown
Altitude
Unknown
Speed
Unknown
Apparent Right ascension
Unknown
Apparent Declination
Unknown
Sunlit
N/A
Visualization observer readout
Local Sidereal Time
02:56:26
Azimuth
Unknown
Elevation
Unknown
Doppler factor
Unknown
Orbital elements
Apogee altitude
2,604.597 km
Perigee altitude
1,200.029 km
Semi-major axis
8,280.45 km
Eccentricity
0.08481
Inclination
51.0829°
RAAN
108.0617°
Arg. of periapsis
226.9414°
True anomaly
133.13848°
Mean anomaly
125.7305°
Eccentric anomaly
129.48114°
Mean motion
2.88046 °/min
Orbital period
124.98 mins
BSTAR
-0.015944
Loading maneuver chart data...
Computing Atmospheric mass density...
Loading historical data...
Loading historical data...
Loading historical data...
Loading historical data...
Loading historical data...
Loading historical data...
Loading historical data...

Documentation

Showing up to 5 results
|